TimeEDT,TemperatureF,Dew PointF,Humidity,Sea Level PressureIn,VisibilityMPH,Wind Direction,Wind SpeedMPH,Gust SpeedMPH,PrecipitationIn,Events,Conditions,WindDirDegrees,DateUTC
12:53 AM,61.0,48.9,64,30.00,10.0,Calm,Calm,-,N/A,,Clear,0,2013-10-16 04:53:00
1:53 AM,60.1,48.9,67,30.01,10.0,Calm,Calm,-,N/A,,Clear,0,2013-10-16 05:53:00
2:53 AM,60.1,48.9,67,30.00,10.0,Calm,Calm,-,N/A,,Clear,0,2013-10-16 06:53:00
3:53 AM,55.9,50.0,80,29.99,10.0,Calm,Calm,-,N/A,,Clear,0,2013-10-16 07:53:00
4:53 AM,57.0,50.0,77,29.98,10.0,Calm,Calm,-,N/A,,Clear,0,2013-10-16 08:53:00
5:53 AM,57.9,46.9,67,29.98,10.0,Calm,Calm,-,N/A,,Partly Cloudy,0,2013-10-16 09:53:00
6:53 AM,59.0,48.0,67,29.99,10.0,Calm,Calm,-,N/A,,Mostly Cloudy,0,2013-10-16 10:53:00
7:53 AM,57.0,48.9,74,30.00,10.0,Calm,Calm,-,N/A,,Overcast,0,2013-10-16 11:53:00
8:53 AM,60.1,51.1,72,30.01,10.0,Calm,Calm,-,N/A,,Overcast,0,2013-10-16 12:53:00
9:53 AM,63.0,46.0,54,30.00,10.0,SSW,4.6,-,N/A,,Overcast,200,2013-10-16 13:53:00
10:22 AM,62.6,46.4,55,30.01,10.0,SSW,4.6,-,N/A,,Overcast,210,2013-10-16 14:22:00
10:41 AM,64.4,48.2,56,30.00,10.0,Variable,4.6,-,N/A,,Overcast,0,2013-10-16 14:41:00
10:53 AM,64.9,48.0,54,29.99,10.0,SW,6.9,-,N/A,,Overcast,220,2013-10-16 14:53:00
11:05 AM,64.4,48.2,56,30.01,10.0,SSW,6.9,-,N/A,,Overcast,210,2013-10-16 15:05:00
11:53 AM,64.9,51.1,61,29.99,10.0,SW,8.1,-,N/A,,Overcast,230,2013-10-16 15:53:00
12:01 PM,64.4,51.8,64,30.00,10.0,SW,4.6,-,N/A,,Overcast,220,2013-10-16 16:01:00
12:53 PM,66.9,53.1,61,29.97,10.0,Variable,3.5,-,N/A,,Overcast,0,2013-10-16 16:53:00
1:53 PM,68.0,55.0,63,29.95,10.0,SSW,3.5,-,N/A,,Overcast,200,2013-10-16 17:53:00
2:53 PM,69.1,57.0,65,29.93,10.0,Variable,4.6,-,N/A,,Mostly Cloudy,0,2013-10-16 18:53:00
3:53 PM,70.0,55.9,61,29.92,10.0,Variable,6.9,-,N/A,,Scattered Clouds,0,2013-10-16 19:53:00
4:53 PM,69.1,55.9,63,29.91,10.0,SW,4.6,-,N/A,,Overcast,220,2013-10-16 20:53:00
5:53 PM,68.0,57.0,68,29.91,10.0,SSW,5.8,-,0.00,Rain,Light Rain,200,2013-10-16 21:53:00
6:53 PM,66.9,57.0,70,29.92,10.0,Variable,4.6,-,0.00,,Overcast,0,2013-10-16 22:53:00
7:51 PM,64.4,57.2,77,29.94,8.0,SW,6.9,-,0.00,Rain,Light Rain,220,2013-10-16 23:51:00
7:53 PM,64.9,57.9,78,29.94,8.0,SSW,6.9,-,0.00,Rain,Light Rain,210,2013-10-16 23:53:00
8:53 PM,64.9,57.9,78,29.94,10.0,SSW,6.9,-,0.00,,Overcast,210,2013-10-17 00:53:00
9:53 PM,64.0,57.9,80,29.94,10.0,SSW,8.1,-,N/A,,Overcast,210,2013-10-17 01:53:00
10:14 PM,64.4,57.2,77,29.96,10.0,SSW,8.1,-,N/A,,Overcast,210,2013-10-17 02:14:00
10:53 PM,63.0,57.9,84,29.95,10.0,SSW,8.1,-,N/A,,Overcast,210,2013-10-17 02:53:00
11:53 PM,62.1,59.0,90,29.94,10.0,SSW,5.8,-,N/A,,Overcast,200,2013-10-17 03:53:00